7L2IWN-13 Weather Reports


Display with metric or nautical units.
time (UTC)temp
F
wind
direction
speed
MPH
gust
MPH
rain 1hr
in
rain 24hr
in
rain mn
in
humidity
%
barometer
mb
20260905071201 74 58 0.0 0.0 0.00 0.38 0.20 92 1012.3
20260905070002 74 91 0.0 1.0 0.00 0.38 0.20 92 1012.1
20260905064802 74 27 1.0 2.0 0.00 0.38 0.20 88 1012.2
20260905063603 74 3 0.0 1.0 0.00 0.38 0.20 88 1012.1
20260905062403 74 359 0.0 1.0 0.00 0.38 0.20 89 1012.1
20260905061202 74 308 3.0 5.0 0.00 0.38 0.20 89 1012.4
20260905060002 76 103 1.0 3.0 0.00 0.38 0.20 87 1012.2
20260905054802 74 285 0.0 1.0 0.00 0.38 0.20 90 1012.3
20260905053604 73 330 1.0 2.0 0.00 0.38 0.20 92 1012.2
20260905052403 72 327 2.0 3.0 0.00 0.38 0.20 93 1012.2
20260905051203 73 6 0.0 1.0 0.00 0.38 0.20 93 1012.2
20260905050002 72 303 3.0 5.0 0.00 0.38 0.20 93 1012.1
20260905044802 73 300 2.0 3.0 0.00 0.38 0.20 93 1012.1
20260905043602 71 308 0.0 2.0 0.00 0.38 0.20 95 1012.0
20260905042403 70 302 1.0 2.0 0.00 0.38 0.20 96 1012.0
20260905041202 70 302 0.0 1.0 0.00 0.38 0.20 98 1012.1
20260905040002 71 44 1.0 2.0 0.00 0.38 0.20 95 1012.3
20260905034802 70 103 2.0 3.0 0.00 0.38 0.20 96 1012.2
20260905033603 72 93 2.0 3.0 0.00 0.38 0.20 95 1012.3
20260905032403 70 53 3.0 5.0 0.00 0.38 0.20 95 1012.2
20260905031202 70 21 3.0 6.0 0.01 0.38 0.20 97 1012.2
20260905030003 69 20 5.0 8.0 0.01 0.38 0.20 98 1012.5
20260905024802 70 322 2.0 3.0 0.01 0.38 0.20 98 1012.3
20260905023603 70 56 0.0 0.0 0.01 0.38 0.20 99 1012.7
20260905022403 70 21 0.0 1.0 0.01 0.38 0.20 97 1013.0
20260905021201 66 86 2.0 2.0 0.00 0.38 0.19 99 1012.8
20260905020001 66 86 2.0 2.0 0.00 0.38 0.19 99 1012.9
20260905014802 66 86 2.0 2.0 0.00 0.38 0.19 99 1012.9
20260905013602 66 86 2.0 2.0 0.00 0.38 0.19 99 1013.0
20260905012403 66 86 2.0 2.0 0.00 0.38 0.19 99 1013.1
20260905011203 66 86 2.0 2.0 0.00 0.38 0.19 99 1013.2
20260905010001 66 86 2.0 2.0 0.00 0.38 0.19 99 1013.4
20260905004802 66 86 2.0 2.0 0.00 0.38 0.19 99 1013.3
20260905003603 66 86 2.0 2.0 0.00 0.38 0.19 99 1013.4
20260905002403 66 86 2.0 2.0 0.00 0.38 0.19 99 1013.1
20260905001203 66 86 2.0 2.0 0.00 0.38 0.19 99 1013.2
20260905000003 66 86 2.0 2.0 0.02 0.38 0.19 99 1013.1
20260904234802 66 55 3.0 3.0 0.03 0.38 0.19 99 1012.9
20260904233603 66 58 2.0 2.0 0.03 0.38 0.19 99 1012.7
20260904232403 66 64 3.0 5.0 0.03 0.38 0.19 99 1012.6
20260904231203 66 91 2.0 6.0 0.03 0.38 0.19 99 1012.7
20260904230002 67 335 0.0 0.0 0.01 0.36 0.17 99 1012.5
20260904224803 66 335 0.0 0.0 0.00 0.35 0.16 99 1012.6
20260904223602 67 335 0.0 0.0 0.00 0.35 0.16 99 1012.4
20260904222402 67 335 0.0 0.0 0.00 0.35 0.16 99 1012.4
20260904221204 66 334 0.0 0.0 0.01 0.35 0.16 99 1012.3
20260904220004 66 334 0.0 0.0 0.01 0.35 0.16 99 1012.5
20260904214803 66 334 0.0 0.0 0.01 0.35 0.16 99 1012.1
20260904213603 66 334 0.0 0.0 0.01 0.35 0.16 99 1012.1
20260904212402 66 332 0.0 2.0 0.01 0.35 0.16 99 1012.0
20260904211205 67 328 1.0 1.0 0.00 0.34 0.15 99 1012.0
20260904210003 67 302 0.0 0.0 0.00 0.34 0.15 99 1012.0
20260904204802 67 296 0.0 0.0 0.00 0.34 0.15 99 1011.8
20260904203604 66 279 0.0 0.0 0.00 0.34 0.15 99 1011.8
20260904202403 66 187 0.0 0.0 0.00 0.34 0.15 99 1011.7
20260904201204 66 183 1.0 2.0 0.01 0.34 0.15 99 1011.5
20260904200003 66 237 0.0 0.0 0.02 0.35 0.15 99 1011.6
20260904194802 66 321 1.0 2.0 0.03 0.35 0.15 99 1011.5
20260904193603 66 120 0.0 0.0 0.03 0.35 0.15 99 1010.9
20260904192403 66 126 0.0 0.0 0.04 0.35 0.15 99 1011.2
20260904191203 66 39 1.0 3.0 0.04 0.34 0.14 99 1011.1
20260904190002 66 354 2.0 3.0 0.04 0.33 0.13 99 1011.1
20260904184803 67 58 5.0 6.0 0.04 0.32 0.12 99 1010.7
20260904183601 67 90 1.0 3.0 0.05 0.32 0.12 99 1011.1
20260904182404 67 236 0.0 0.0 0.05 0.31 0.11 99 1011.8
20260904181204 67 173 2.0 3.0 0.04 0.30 0.10 99 1011.5
20260904180003 67 320 5.0 6.0 0.03 0.29 0.09 99 1011.3
20260904174803 66 119 1.0 2.0 0.03 0.28 0.08 99 1010.9
20260904173602 66 117 1.0 2.0 0.03 0.27 0.07 99 1011.0
20260904172403 67 80 2.0 3.0 0.03 0.26 0.06 99 1011.1
20260904171203 67 40 3.0 6.0 0.04 0.26 0.06 99 1010.8
20260904170001 67 24 5.0 6.0 0.04 0.26 0.06 99 1011.1
20260904164802 67 36 2.0 5.0 0.03 0.25 0.05 99 1011.3
20260904163602 67 41 3.0 5.0 0.03 0.24 0.04 99 1011.5
20260904162404 67 81 0.0 1.0 0.03 0.24 0.04 99 1011.4
20260904161202 67 110 2.0 3.0 0.02 0.22 0.02 99 1011.4
20260904160002 67 103 0.0 1.0 0.00 0.22 0.02 99 1011.5
20260904154802 67 119 2.0 3.0 0.00 0.22 0.02 99 1011.1
20260904153604 67 33 0.0 0.0 0.00 0.21 0.01 99 1011.8
20260904152403 67 101 0.0 0.0 0.00 0.21 0.01 99 1011.5
20260904151202 67 160 2.0 3.0 0.00 0.21 0.00 99 1011.4
20260904150003 67 351 1.0 2.0 0.01 0.21 0.21 99 1011.2
20260904144801 67 330 2.0 2.0 0.01 0.21 0.21 99 1011.4
20260904143603 67 104 1.0 1.0 0.02 0.21 0.21 99 1011.4
20260904142402 67 45 1.0 2.0 0.04 0.21 0.21 99 1011.6
20260904141203 67 308 1.0 1.0 0.05 0.20 0.20 99 1011.7
20260904140003 67 339 2.0 2.0 0.08 0.20 0.20 99 1011.8
20260904134803 67 103 2.0 2.0 0.09 0.20 0.20 99 1011.6
20260904133602 67 109 1.0 2.0 0.09 0.19 0.19 99 1012.4
20260904132401 68 27 0.0 1.0 0.09 0.17 0.17 99 1012.3
20260904131203 68 90 1.0 1.0 0.07 0.15 0.15 99 1012.0
20260904130003 68 118 2.0 2.0 0.05 0.12 0.12 99 1011.6
20260904124802 68 336 1.0 1.0 0.04 0.11 0.11 99 1011.6
20260904123603 69 35 1.0 3.0 0.04 0.10 0.10 99 1011.4
20260904122403 71 64 2.0 3.0 0.02 0.08 0.08 97 1011.6
20260904121202 71 64 2.0 3.0 0.03 0.08 0.08 97 1012.1
20260904120001 69 40 3.0 3.0 0.02 0.07 0.07 99 1011.9
20260904114801 69 40 3.0 3.0 0.02 0.07 0.07 99 1012.1
20260904113603 70 116 0.0 2.0 0.02 0.06 0.06 99 1012.7
20260904112401 70 45 1.0 1.0 0.03 0.06 0.06 99 1012.4
20260904111203 71 99 0.0 1.0 0.02 0.05 0.05 99 1012.6
20260904110002 72 147 3.0 5.0 0.02 0.05 0.05 95 1012.3
20260904104802 72 173 5.0 8.0 0.02 0.05 0.05 99 1012.1
20260904103601 71 295 7.0 9.0 0.01 0.04 0.04 99 1011.6
20260904102402 72 192 7.0 9.0 0.00 0.03 0.03 99 1011.6
20260904101203 71 27 2.0 5.0 0.00 0.03 0.03 99 1011.4
20260904100003 71 300 0.0 0.0 0.00 0.04 0.03 99 1011.1
20260904094801 71 239 1.0 2.0 0.00 0.04 0.03 99 1010.8
20260904093603 72 255 1.0 2.0 0.00 0.04 0.03 99 1010.7
20260904092402 71 113 3.0 7.0 0.00 0.04 0.03 99 1011.3
20260904091203 71 124 2.0 2.0 0.00 0.04 0.03 99 1011.5
20260904090002 71 138 1.0 2.0 0.00 0.04 0.03 99 1011.6
20260904084802 71 155 5.0 7.0 0.00 0.04 0.03 99 1011.2
20260904083604 71 284 3.0 6.0 0.00 0.04 0.03 99 1010.9
20260904082403 72 180 2.0 2.0 0.00 0.04 0.03 99 1010.4
20260904081202 72 226 2.0 5.0 0.00 0.04 0.03 99 1011.0
20260904080002 72 285 3.0 5.0 0.00 0.04 0.03 99 1011.1
20260904074803 73 224 3.0 3.0 0.00 0.04 0.03 99 1011.0
20260904073603 72 354 1.0 2.0 0.00 0.04 0.03 99 1010.5
20260904072402 73 165 0.0 2.0 0.00 0.05 0.03 97 1010.5